Weather reports worldwide

Advertisment
Gioia Del Colle, Italy (16312): temperature & dewpoint: 13.01.2021 05:00:00 - 19.01.2021 05:00:00 (CET)Gioia Del Colle, Italy (16312): wind speed: 13.01.2021 05:00:00 - 19.01.2021 05:00:00 (CET)Gioia Del Colle, Italy (16312): wind direction: 13.01.2021 05:00:00 - 19.01.2021 05:00:00 (CET)Gioia Del Colle, Italy (16312): reduced air pressure: 13.01.2021 05:00:00 - 19.01.2021 05:00:00 (CET)Gioia Del Colle, Italy (16312): visibility: 13.01.2021 05:00:00 - 19.01.2021 05:00:00 (CET)
Date & Time tt [°C] td [°C] ff [km/h] ff [kn] dd ppp [hPa] vv [km]
19.01.2021 05:00:00 - - - - - - -
19.01.2021 04:00:00 2,0 2,0 16 9 NW 1025,5 5
19.01.2021 03:00:00 3,0 3,0 24 13 NW - 5
19.01.2021 02:00:00 2,0 1,0 18 10 NW - 10
19.01.2021 01:00:00 2,0 0,5 21 11 WNW 1024,5 10
19.01.2021 00:00:00 2,0 0,0 15 8 NW - 10
18.01.2021 23:00:00 2,0 -1,0 13 7 NW - 10
18.01.2021 22:00:00 1,6 -2,3 13 7 NW 1023,8 10
18.01.2021 21:00:00 2,0 -3,0 18 10 NW - 10
18.01.2021 20:00:00 1,0 -3,0 11 6 NW - 10
18.01.2021 19:00:00 1,6 -3,3 15 8 NW 1022,8 10
18.01.2021 18:00:00 2,0 -3,0 13 7 WNW - 10
18.01.2021 17:00:00 3,0 -4,0 18 10 NW - 10
18.01.2021 16:00:00 3,6 -6,9 26 14 NW 1021,3 10
18.01.2021 15:00:00 4,0 -3,0 26 14 NW - 10
18.01.2021 14:00:00 3,0 -4,0 18 10 NNW - 10
18.01.2021 13:00:00 2,8 -1,0 21 11 NNW 1020,6 10
18.01.2021 12:00:00 3,0 -1,0 22 12 NW - 10
18.01.2021 11:00:00 3,0 -1,0 24 13 NW - 10
18.01.2021 10:00:00 4,0 -0,4 22 12 NW 1020,2 10
18.01.2021 09:00:00 3,0 0,0 21 11 NW - 10
18.01.2021 08:00:00 2,0 2,0 13 7 NW - 7
18.01.2021 07:00:00 2,2 2,2 11 6 NNW 1017,9 2,3
18.01.2021 06:00:00 2,0 2,0 18 10 N - 2,8
18.01.2021 05:00:00 2,0 2,0 16 9 NNW - 2,3
18.01.2021 04:00:00 2,4 2,4 13 7 NNW 1015,7 6
18.01.2021 03:00:00 2,0 2,0 13 7 NW - 8
18.01.2021 02:00:00 1,0 1,0 5 3 NNE - 8
18.01.2021 01:00:00 1,2 1,2 8 4 WNW 1015,1 8
18.01.2021 00:00:00 2,0 2,0 5 3 WNW - 8
17.01.2021 23:00:00 2,0 2,0 2 1 - - 8
17.01.2021 22:00:00 2,6 1,7 4 2 S 1014,5 8
17.01.2021 21:00:00 3,0 2,0 8 4 SE - 8
17.01.2021 20:00:00 4,0 0,0 18 10 SE - 8
17.01.2021 19:00:00 4,0 -0,4 8 4 ESE 1014,1 8
17.01.2021 18:00:00 4,0 -1,0 9 5 E - 10
17.01.2021 17:00:00 4,0 -2,0 9 5 SSE - 10
17.01.2021 16:00:00 4,6 -3,0 15 8 SSE 1013,8 10
17.01.2021 15:00:00 5,0 -4,0 24 13 SSE - 10
17.01.2021 14:00:00 4,0 -5,0 16 9 SSE - 10
17.01.2021 13:00:00 4,2 -4,8 16 9 SSE 1015,5 10
17.01.2021 12:00:00 4,0 -4,0 11 6 S - 10
17.01.2021 11:00:00 4,0 -4,0 8 4 SW - 10
17.01.2021 10:00:00 3,0 -4,4 4 2 N 1017,4 10
17.01.2021 09:00:00 2,0 -5,0 8 4 NW - 10
17.01.2021 08:00:00 1,0 -4,0 16 9 W - 10
17.01.2021 07:00:00 0,2 -3,9 16 9 W 1017,7 8
17.01.2021 06:00:00 0,0 -4,0 18 10 WNW - 8
17.01.2021 05:00:00 2,0 -4,0 16 9 NW - 7
17.01.2021 04:00:00 2,0 -3,9 18 10 NW 1017,5 7
17.01.2021 03:00:00 2,0 -3,0 21 11 NW - 7
17.01.2021 02:00:00 2,0 -2,0 22 12 NNW - 7
17.01.2021 01:00:00 1,8 -0,8 21 11 NW 1018,1 7
17.01.2021 00:00:00 2,0 -1,0 18 10 WNW - 7
16.01.2021 23:00:00 2,0 -1,0 18 10 WNW - 6
16.01.2021 22:00:00 1,6 0,1 21 11 NW 1018,2 5
16.01.2021 21:00:00 2,0 -1,0 21 11 N - 7
16.01.2021 20:00:00 2,0 0,0 21 11 WNW - 7
16.01.2021 19:00:00 1,4 0,4 21 11 NW 1016,9 4,0
16.01.2021 18:00:00 3,0 -1,0 24 13 N - 8
16.01.2021 17:00:00 3,0 0,0 26 14 NNW - 7
16.01.2021 16:00:00 2,0 0,5 28 15 NNW 1015,1 7
16.01.2021 15:00:00 1,0 0,0 35 19 NNW - 3,2
16.01.2021 14:00:00 4,0 0,0 31 17 NW - 7
16.01.2021 13:00:00 4,8 -5,5 37 20 NNW 1014,3 9
16.01.2021 12:00:00 5,0 -8,0 37 20 N - 10
16.01.2021 11:00:00 5,0 -7,0 37 20 N - 10
16.01.2021 10:00:00 5,0 -5,6 35 19 N 1014,2 10
16.01.2021 09:00:00 4,0 -6,0 29 16 N - 10
16.01.2021 08:00:00 4,0 -6,0 28 15 N - 10
16.01.2021 07:00:00 4,0 -3,7 24 13 N 1013,2 10
16.01.2021 06:00:00 4,0 -5,0 18 10 NNW - 10
16.01.2021 05:00:00 3,0 -3,0 15 8 NNW - 10
16.01.2021 04:00:00 4,0 -1,6 16 9 NNW 1011,9 10
16.01.2021 03:00:00 4,0 1,0 18 10 NW - 10
16.01.2021 02:00:00 4,0 1,0 16 9 NW - 10
16.01.2021 01:00:00 3,6 2,1 15 8 NW 1012,2 10
16.01.2021 00:00:00 3,0 3,0 5 3 WNW - 10
15.01.2021 23:00:00 3,0 3,0 5 3 W - 10
15.01.2021 22:00:00 3,0 2,9 4 2 N 1013,4 10
15.01.2021 21:00:00 3,0 3,0 9 5 W - 10
15.01.2021 20:00:00 3,0 2,0 5 3 SW - 10
15.01.2021 19:00:00 3,8 2,0 13 7 S 1012,7 10
15.01.2021 18:00:00 5,0 -1,0 9 5 S - 10
15.01.2021 17:00:00 5,0 -1,0 5 3 E - 10
15.01.2021 16:00:00 5,8 -1,4 13 7 ENE 1011,6 10
15.01.2021 15:00:00 7,0 -1,0 9 5 ENE - 10
15.01.2021 14:00:00 7,0 -1,0 15 8 NNE - 10
15.01.2021 13:00:00 7,0 -1,9 11 6 ENE 1011,5 10
15.01.2021 12:00:00 7,0 -3,0 8 4 N - 10
15.01.2021 11:00:00 7,0 -2,0 9 5 N - 10
15.01.2021 10:00:00 5,2 -1,9 9 5 N 1013,7 10
15.01.2021 09:00:00 2,0 -1,0 8 4 W - 10
15.01.2021 08:00:00 2,0 -1,0 5 3 WSW - 10
15.01.2021 07:00:00 2,2 -2,7 13 7 N 1013,6 10
15.01.2021 06:00:00 3,0 -2,0 26 14 N - 10
15.01.2021 05:00:00 3,0 -2,0 24 13 N - 10
15.01.2021 04:00:00 3,8 -1,5 22 12 N 1013,1 10
15.01.2021 03:00:00 4,0 -1,0 18 10 N - 10
15.01.2021 02:00:00 5,0 0,0 11 6 N - 10
15.01.2021 01:00:00 5,0 0,8 16 9 NNW 1013,0 10
15.01.2021 00:00:00 5,0 3,0 13 7 NNW - 5
14.01.2021 23:00:00 5,0 3,0 21 11 NNE - 5
14.01.2021 22:00:00 5,8 4,9 22 12 N 1011,5 5
14.01.2021 21:00:00 6,0 5,0 28 15 N - 5
14.01.2021 20:00:00 9,0 5,0 15 8 WNW - 10
14.01.2021 19:00:00 9,2 4,4 9 5 NNW 1008,3 10
14.01.2021 18:00:00 10,0 4,0 15 8 NNW - 10
14.01.2021 17:00:00 11,0 6,0 11 6 W - 10
14.01.2021 16:00:00 13,0 6,8 21 11 W 1006,1 10
14.01.2021 15:00:00 14,0 7,0 34 18 W - 10
14.01.2021 14:00:00 14,0 6,0 26 14 W - 10
14.01.2021 13:00:00 12,8 5,2 13 7 S 1007,8 10
14.01.2021 12:00:00 11,0 4,0 18 10 S - 10
14.01.2021 11:00:00 9,0 2,0 21 11 S - 10
14.01.2021 10:00:00 7,0 2,1 21 11 SSE 1011,2 10
14.01.2021 09:00:00 4,0 2,0 16 9 S - 10
14.01.2021 08:00:00 2,0 2,0 16 9 S - 8
14.01.2021 07:00:00 1,6 1,6 13 7 S 1013,0 6
14.01.2021 06:00:00 2,0 2,0 9 5 SE - 8
14.01.2021 05:00:00 2,0 2,0 8 4 WSW - 8
14.01.2021 04:00:00 3,0 2,3 11 6 WSW 1014,6 8
14.01.2021 03:00:00 3,0 3,0 8 4 W - 8
14.01.2021 02:00:00 3,0 2,0 9 5 WNW - 8
14.01.2021 01:00:00 3,8 3,1 16 9 WNW 1015,1 10
14.01.2021 00:00:00 4,0 3,0 15 8 WNW - 10
13.01.2021 23:00:00 5,0 4,0 13 7 WNW - 10
13.01.2021 22:00:00 6,0 3,5 18 10 NW 1014,7 10
13.01.2021 21:00:00 6,0 2,0 22 12 NW - 10
13.01.2021 20:00:00 6,0 2,0 22 12 NW - 10
13.01.2021 19:00:00 6,2 1,7 18 10 WNW 1012,7 10
13.01.2021 18:00:00 6,0 0,0 18 10 NW - 10
13.01.2021 17:00:00 7,0 0,0 11 6 NW - 10
13.01.2021 16:00:00 9,4 -2,9 18 10 N 1011,0 12
13.01.2021 15:00:00 10,0 -7,0 22 12 NW - 10
13.01.2021 14:00:00 10,0 -4,0 15 8 NW - 10
13.01.2021 13:00:00 9,2 -4,4 18 10 NW 1011,1 12
13.01.2021 12:00:00 9,0 -3,0 21 11 NW - 10
13.01.2021 11:00:00 8,0 -3,0 22 12 NW - 10
13.01.2021 10:00:00 6,6 -2,0 15 8 NNW 1011,9 10
13.01.2021 09:00:00 4,0 -1,0 8 4 N - 10
13.01.2021 08:00:00 4,0 0,0 9 5 NW - 10
13.01.2021 07:00:00 3,0 1,2 4 2 NW 1011,3 10
13.01.2021 06:00:00 3,0 2,0 2 1 - - 10
13.01.2021 05:00:00 2,0 1,0 4 2 NE - 10

tt = temperature
td = dewpoint
ff = wind speed
dd = wind direction
ppp = reduced air pressure
vv = visibility

Next stations